Lemur-2 Valhalla

operational
NORAD ID: 58900 Int'l Des: 2024-022 Owner: SPIRE/NSTAR Country: US Constellation: spire
LEOCIRCULARRETROGRADESSO

Lemur-2 Valhallaについて

説明を読み込み中...

リアルタイム位置

3D地球を読み込み中...

次回通過

高度履歴

Altitude vs Time

uPlot chart will show altitude changes over time

軌道要素

1 58900U 24022B 26063.13464551 .00025578 00000-0 72253-3 0 9997
2 58900 97.4227 272.0332 0011062 127.3945 232.8307 15.36282554116122
Epoch: Mar 4, 2026 • Age: 21 hours

現在のステータス

高度 463.7 km
速度 7.65 km/s
衛星直下点 80.31°N, 26.85°E
打ち上げ日 Jan 31, 2024
運用期間 2 years
タイプ other

技術仕様

分類 Payload
質量 25.00 kg
乾燥質量 25.00 kg
総質量 25.00 kg
長さ 0.40 m
直径 0.20 m
スパン 1.00 m
形状 Box+2 pan
製造者 SPIREG
バスタイプ Cubesat 3U
フェーズステータス In Orbit
所有者/国 SPIRE/NSTAR/US

大規模コンステレーション

Loading constellations...